EHI
0 0 0 0 0 0 0 0 0 0 0 1 2 4 6 10 16 20 23 25 27 27 27 27 26 22 21 23 22 20 21 21 21 20 18 16 15 15 15 14 13 11 9 9
0 0 0 0 0 0 0 0 0 0 0 1 3 4 6 9 14 19 21 24 26 26 26 26 25 22 20 22 22 22 22 21 21 20 18 17 16 16 15 14 13 12 11 12
0 0 0 0 0 0 0 1 1 1 1 2 3 3 6 9 13 17 19 22 23 24 26 27 25 22 19 19 20 20 19 18 17 16 15 15 16 16 15 14 15 15 15 15
0 0 0 0 0 0 0 1 2 1 2 3 3 3 6 11 14 16 17 18 20 23 25 26 24 21 18 16 15 14 13 14 14 15 14 14 16 17 16 16 17 18 18 18
0 0 0 0 0 0 0 1 1 1 2 3 3 4 9 15 17 17 17 19 21 22 24 25 23 20 17 14 12 11 11 13 16 17 17 17 17 19 19 19 19 19 18 17
0 0 0 0 0 0 0 0 0 1 3 5 4 5 12 18 20 19 21 24 25 22 23 25 24 21 17 15 13 11 12 15 17 17 17 18 19 21 21 22 21 18 16 16
0 0 0 0 0 0 1 1 1 2 4 6 6 8 13 18 21 22 25 27 26 23 23 25 25 23 22 21 17 14 14 16 17 16 16 17 19 21 22 22 21 19 17 15
0 0 0 0 1 1 2 3 2 2 4 6 10 13 15 18 22 25 26 26 24 23 25 27 26 26 26 25 20 17 16 17 18 17 16 17 18 20 21 20 19 18 17 15
1 0 0 1 2 2 3 3 3 4 4 7 11 15 18 20 23 26 29 29 26 26 28 29 28 26 25 23 20 18 17 19 21 21 20 19 18 18 18 17 14 13 12 12
2 1 0 1 1 1 2 3 4 4 5 8 12 18 23 23 23 26 33 34 30 28 29 29 26 23 21 20 19 18 17 19 21 21 20 19 18 17 17 15 12 9 8 8
3 2 2 2 1 1 2 3 3 4 6 9 15 22 26 25 23 26 32 35 31 29 28 27 24 21 19 18 18 17 15 15 16 16 17 17 15 14 13 12 9 6 5 6
4 5 5 5 3 3 4 4 4 5 8 11 16 23 27 26 24 24 28 30 29 28 26 25 23 19 17 15 15 15 14 11 9 10 12 12 12 10 9 7 5 3 2 2
7 8 8 7 7 7 8 7 7 9 11 13 18 22 24 25 24 22 22 24 25 25 24 22 19 16 14 13 13 12 11 8 7 7 9 9 9 8 7 5 3 1 0 0
9 11 11 10 11 12 12 11 12 13 15 17 19 21 21 21 20 18 17 17 19 21 20 17 14 12 10 11 10 9 8 7 6 7 7 7 7 7 7 6 3 2 1 0
11 12 13 13 14 14 14 15 16 17 18 19 19 19 19 18 17 15 14 13 13 15 14 11 9 7 5 6 7 8 7 6 6 6 7 6 6 6 6 5 3 2 1 1
11 12 13 13 13 14 15 18 20 20 20 19 17 15 15 15 13 12 11 9 8 8 8 8 6 5 2 2 5 6 6 5 3 4 5 5 5 6 6 4 2 1 1 1
10 10 11 10 11 13 16 18 21 21 20 16 13 11 10 10 10 8 7 5 4 5 6 7 7 5 3 2 3 4 4 3 2 2 3 4 4 5 5 3 2 1 1 1
8 8 8 9 11 14 16 17 18 18 16 13 10 8 7 6 7 6 4 3 4 5 6 6 6 6 4 2 2 3 3 2 1 1 3 3 3 4 3 3 2 1 2 2
6 7 7 9 13 15 16 15 14 13 12 10 9 8 7 6 5 5 4 3 4 5 5 5 4 4 4 2 1 1 2 2 1 2 3 3 3 2 2 2 2 2 2 3
6 6 8 12 15 15 15 13 11 10 10 10 9 9 8 6 5 4 3 2 2 2 3 3 3 3 3 2 1 1 2 3 3 3 3 2 2 1 0 1 2 1 2 3
8 8 10 14 15 14 12 10 9 9 9 10 9 8 7 5 3 2 1 1 1 0 1 1 1 2 2 2 1 2 3 3 3 2 1 1 1 0 0 1 1 1 2 3
11 11 11 12 12 10 9 9 8 9 9 9 7 5 4 2 1 1 0 0 0 0 0 0 0 1 1 1 1 2 2 2 1 1 0 0 0 0 1 2 2 3 3 3
12 11 10 8 8 8 7 7 8 8 8 6 4 2 1 1 0 0 0 0 0 0 0 0 0 0 0 0 0 1 1 1 0 0 1 1 1 1 2 3 3 3 3 3
9 8 6 6 6 6 6 6 6 6 5 4 2 1 0 0 0 0 0 0 0 0 0 0 0 0 0 0 0 0 0 0 0 0 1 2 2 2 2 2 2 3 3 3
5 4 3 4 5 6 6 5 4 4 3 3 1 0 0 0 0 0 0 0 0 0 0 0 0 0 0 0 0 0 0 0 0 0 1 1 1 1 1 1 1 2 2 1
2 1 1 2 3 3 4 4 3 3 2 2 1 0 0 0 0 0 0 0 0 0 0 0 0 0 0 0 0 0 0 0 0 0 0 0 0 0 0 0 1 1 1 0
1 0 0 1 1 2 3 3 3 2 1 1 0 0 0 0 0 0 0 0 0 0 0 0 0 0 0 0 0 0 0 0 0 0 0 0 0 0 0 1 1 1 0 0
Wind_Speed
10 8 8 9 10 11 12 12 12 11 10 6 4 4 2 3 4 5 6 6 6 6 6 6 6 6 5 6 6 6 6 5 5 4 4 4 4 4 4 4 4 3 4 4
11 10 11 12 12 12 12 12 13 12 10 5 4 2 2 3 5 6 6 6 6 6 6 6 6 6 5 5 5 6 6 5 4 4 4 4 4 4 4 4 4 4 5 5
11 10 12 15 12 13 12 10 11 11 7 4 4 3 2 2 4 5 5 6 6 6 6 6 6 6 6 6 6 6 6 5 4 4 4 4 4 4 4 4 5 5 5 5
10 10 16 6 4 7 9 8 9 9 7 5 5 4 2 2 3 4 4 5 6 5 6 6 6 5 5 5 6 6 6 5 5 4 4 4 4 4 5 4 4 5 5 5
10 13 13 8 6 7 9 8 6 7 6 5 5 4 3 0 1 2 3 4 4 5 5 5 5 5 5 5 5 5 5 5 5 5 4 4 4 4 4 4 4 5 5 5
10 13 14 6 4 4 8 9 2 4 4 3 4 6 1 1 1 1 1 2 3 4 5 4 4 4 4 4 5 5 5 5 4 4 5 5 5 5 4 4 5 5 4 4
13 13 9 1 2 5 9 2 3 2 2 3 3 5 4 2 1 1 1 2 3 4 4 4 4 4 4 4 4 3 3 4 4 5 5 5 5 4 4 4 4 5 5 5
11 13 8 2 4 4 2 3 3 3 3 3 3 3 3 2 1 1 2 3 3 4 3 3 4 4 4 4 3 3 3 4 5 5 5 4 4 4 4 5 5 5 5 5
5 4 2 0 0 1 2 3 4 4 4 3 3 3 3 2 2 2 2 2 3 4 4 3 4 4 3 2 2 3 3 4 4 5 4 4 5 5 5 5 5 5 4 5
6 5 4 3 2 2 2 4 4 5 4 3 3 3 3 2 2 2 1 2 2 3 3 3 3 3 2 2 2 3 3 3 4 4 5 4 4 5 5 5 5 5 5 5
8 6 5 5 3 3 3 4 5 5 4 4 3 3 2 2 1 1 1 1 2 2 2 2 2 2 2 2 2 3 3 2 3 4 4 3 4 4 5 3 3 5 5 5
6 4 6 4 3 4 4 4 5 5 5 4 4 3 3 2 1 2 1 1 1 2 2 2 2 2 2 1 2 3 3 3 3 3 2 4 4 4 3 4 3 4 5 6
7 7 6 6 6 5 5 5 6 5 5 5 4 3 3 3 2 2 2 2 2 2 2 2 2 1 1 2 2 3 3 3 3 3 3 4 4 4 4 4 5 6 7 7
6 5 6 6 5 5 5 5 4 4 4 5 4 3 3 3 3 3 2 2 2 1 1 1 1 1 1 1 2 3 4 3 3 3 3 4 4 4 5 5 5 4 6 8
7 7 6 5 5 4 4 4 4 4 4 4 4 4 3 3 3 2 1 1 1 1 1 1 1 1 2 2 2 3 3 3 3 3 3 4 4 4 5 5 5 5 4 4
6 6 6 6 5 5 5 5 5 4 4 5 4 4 3 3 2 1 1 1 2 2 1 1 1 1 2 3 3 3 3 2 3 4 4 4 4 4 4 4 5 5 5 4
7 7 6 6 6 5 5 5 5 4 4 5 4 4 3 2 2 1 1 1 2 2 1 1 1 2 3 3 4 3 3 3 3 4 4 4 4 4 4 4 4 5 4 3
8 7 7 7 6 5 5 5 5 5 5 4 4 3 3 3 3 2 1 1 1 1 0 1 1 3 3 3 3 4 3 3 4 3 3 4 4 4 4 4 4 5 5 2
6 7 7 6 6 6 5 5 4 4 4 3 3 3 3 2 2 1 1 1 1 1 1 1 1 2 2 3 4 3 4 4 4 3 3 3 4 4 4 4 4 3 4 3
5 5 6 6 6 6 5 4 4 3 3 3 3 3 2 2 1 1 2 1 0 1 1 1 2 2 2 2 4 4 3 3 4 4 4 4 4 3 3 3 3 3 3 3
4 3 4 4 4 3 3 2 2 2 2 3 2 2 2 1 0 0 1 0 1 2 1 1 1 1 2 2 4 3 3 3 3 3 3 3 3 3 3 3 3 3 3 3
3 3 3 2 2 2 1 1 1 2 2 1 1 2 2 2 1 1 1 1 1 2 1 1 1 3 4 4 3 3 3 3 2 3 3 3 3 3 3 3 3 3 3 3
2 2 2 0 1 1 1 1 1 1 1 2 2 2 2 1 1 1 1 2 1 2 1 2 4 4 4 3 2 2 2 3 3 3 3 3 3 3 3 3 3 3 3 3
2 2 2 1 2 3 3 3 3 3 3 3 2 2 2 1 1 1 2 3 3 2 2 4 4 2 4 2 1 2 2 3 3 3 3 3 3 3 4 4 4 4 3 3
1 1 1 1 2 2 3 3 3 3 3 3 3 3 2 2 2 2 3 3 3 2 3 4 3 2 2 2 3 3 3 3 4 3 3 3 3 3 3 3 3 3 3 2
0 1 1 1 2 1 1 2 2 2 2 2 3 3 3 3 3 2 2 3 4 3 2 2 2 2 3 3 3 3 3 3 3 3 4 3 3 3 3 3 4 3 3 3
1 1 1 2 2 2 1 1 2 1 1 2 2 3 3 3 3 3 3 3 3 3 3 3 3 3 3 3 4 4 4 4 4 4 3 3 3 3 3 4 3 3 3 3
Wind_Direction
261 266 258 251 239 230 239 256 267 275 276 283 303 304 271 218 195 180 173 175 174 173 167 167 170 173 174 173 175 178 181 189 194 201 209 221 228 234 232 239 245 245 251 255
245 245 247 249 248 244 244 254 260 267 272 292 304 298 272 220 201 192 186 183 177 174 172 173 174 173 171 175 177 181 187 190 189 200 209 220 229 232 234 240 250 250 251 256
246 239 246 243 242 243 244 250 262 265 279 291 289 292 275 231 211 205 195 186 182 180 180 178 175 171 177 176 176 180 186 189 190 202 210 217 229 227 234 240 245 248 253 257
250 241 244 249 250 252 251 255 265 274 277 277 282 281 261 250 233 218 205 196 191 188 184 180 172 170 174 177 181 187 193 194 197 208 212 217 227 234 240 244 248 252 254 256
247 243 245 228 229 247 252 253 271 272 273 287 301 268 214 45 279 244 218 208 196 188 180 172 170 170 178 189 194 201 204 204 204 212 220 225 229 236 244 245 247 252 249 253
239 249 249 233 207 241 251 240 281 287 287 290 278 263 244 39 326 296 228 200 186 177 174 165 166 176 192 200 203 211 212 212 209 215 224 231 233 238 242 247 250 255 253 257
237 246 251 254 197 209 236 263 11 319 306 288 286 313 337 317 297 238 208 183 180 178 174 167 167 177 199 208 211 214 214 214 216 221 229 229 229 233 237 242 251 258 261 261
233 243 238 136 198 228 331 7 346 329 315 307 321 341 333 313 284 235 196 179 177 175 172 167 172 181 194 208 210 207 214 220 220 225 238 228 225 232 235 241 241 243 246 257
248 259 32 232 194 39 333 314 325 325 325 324 325 332 334 319 289 259 225 190 183 179 174 176 181 184 193 197 204 208 218 227 229 228 231 233 230 231 234 233 246 255 260 267
246 234 241 239 241 256 282 297 306 306 309 307 304 311 319 316 309 286 249 200 197 189 179 178 185 191 186 187 207 218 229 231 226 228 230 227 236 239 247 251 258 266 275 280
243 247 249 230 240 267 292 299 298 296 293 291 289 283 285 279 294 296 274 234 208 201 190 182 184 196 193 181 199 222 233 244 244 240 238 240 243 258 259 267 275 271 279 284
258 255 267 261 274 274 279 287 293 293 288 283 279 275 271 268 267 272 275 281 236 216 206 195 192 190 198 196 214 227 229 239 259 264 258 255 254 256 252 245 231 230 251 270
280 285 288 283 282 280 280 286 286 280 278 282 283 275 269 264 250 247 255 261 264 254 228 209 204 209 223 220 236 249 253 257 263 265 263 266 263 262 264 244 230 228 230 237
270 270 266 269 279 286 281 279 277 277 278 281 279 272 267 265 263 258 259 262 261 263 238 219 225 250 279 261 258 268 272 271 271 274 276 275 272 273 272 274 267 256 230 224
260 264 266 272 273 276 273 263 256 260 270 275 275 273 274 275 273 275 274 269 265 253 251 237 235 298 310 286 272 273 281 287 295 296 287 283 281 278 277 279 282 282 276 236
266 264 258 253 256 262 259 256 259 267 274 280 280 276 273 270 261 254 239 229 236 248 265 284 295 307 299 294 286 273 269 271 273 284 285 285 282 279 275 276 279 284 287 296
258 259 260 259 257 260 267 273 273 272 273 274 271 266 262 253 238 225 230 235 234 228 237 266 306 305 289 281 280 281 285 276 248 265 277 283 284 285 283 279 286 292 299 326
260 264 263 261 264 269 271 275 276 275 272 268 260 252 243 227 225 237 250 250 240 215 222 296 312 293 294 295 294 292 288 285 283 282 285 289 295 291 290 290 296 304 306 284
253 253 257 258 260 261 263 267 271 272 264 252 246 246 238 233 231 233 218 213 212 216 257 300 284 272 292 306 301 280 284 288 289 289 288 285 281 291 294 295 303 309 311 329
259 257 256 257 256 254 257 260 259 252 242 233 229 221 211 213 209 214 208 214 311 350 341 336 293 299 299 299 290 281 288 295 299 296 292 293 299 304 305 308 315 323 326 326
269 266 263 262 258 249 234 241 245 237 231 226 216 204 190 173 159 187 209 163 52 18 339 311 298 314 304 308 276 283 295 303 308 310 309 311 313 314 322 328 325 327 327 326
296 285 274 261 234 217 202 209 209 210 223 209 180 170 153 145 136 106 76 37 46 14 316 338 360 16 346 307 297 317 323 326 329 328 326 328 327 329 336 337 327 333 337 340
327 323 307 260 165 159 130 103 112 135 128 119 129 149 143 105 82 94 90 68 47 20 345 31 35 20 329 295 318 324 329 335 339 343 346 349 347 341 345 347 348 349 350 345
350 355 5 49 93 107 101 84 80 90 101 102 100 102 107 113 96 72 75 84 59 30 34 62 59 2 297 300 351 1 9 9 10 12 15 13 7 360 360 359 356 354 346 340
336 29 68 102 102 96 97 95 88 91 97 95 91 90 91 82 80 74 72 72 68 44 57 79 84 348 333 26 36 35 33 26 19 19 21 14 11 8 2 357 352 339 340 356
52 68 88 86 78 85 93 97 91 88 91 87 82 75 72 76 77 79 87 90 77 62 55 59 52 33 30 35 38 37 36 39 34 27 26 15 8 4 356 353 354 352 358 3
136 118 110 96 93 90 89 95 96 93 96 96 88 81 77 79 81 76 72 71 69 60 58 56 48 41 39 38 40 37 30 26 25 21 19 13 10 6 1 357 358 358 356 1